Location: Bílinka
(49.3579°N, 14.3767°E)
Time: 20:25:47
(UTC+00:00)

deb Atmosphere 1 - Visible Passes

Search period start: 27 February 2024 00:00
Search period end: 08 March 2024 00:00
Orbit: 833 x 847 km, 98.7° (Epoch: 26 February)

Date Brightness Start Highest point End Pass type
(mag) Time Alt. Az. Time Alt. Az. Time Alt. Az.
27 Feb ? 03:40:05 10° NNE 03:45:26 52° E 03:50:45 10° S visible
28 Feb ? 03:25:19 10° NNE 03:30:27 40° E 03:35:34 10° SSE visible
28 Feb ? 05:05:57 10° N 05:10:55 37° WNW 05:15:52 10° SW visible
29 Feb ? 03:10:38 10° NNE 03:15:27 31° E 03:20:14 10° SSE visible
29 Feb ? 04:50:54 10° N 04:56:06 47° WNW 05:01:19 10° SW visible
01 Mar ? 02:56:03 10° NE 03:00:23 24° E 03:04:44 10° SE visible
01 Mar ? 04:35:54 10° N 04:41:18 60° WNW 04:46:40 10° SSW visible
02 Mar ? 02:41:37 10° NE 02:45:19 18° E 02:48:59 10° SE visible
02 Mar ? 04:20:56 10° NNE 04:26:25 78° WNW 04:31:54 10° SSW visible
03 Mar ? 02:27:30 10° NE 02:30:11 14° E 02:32:52 10° ESE visible
03 Mar ? 04:06:01 10° NNE 04:11:32 82° ESE 04:17:01 10° SSW visible
04 Mar ? 03:51:08 10° NNE 03:56:36 64° ESE 04:02:02 10° S visible
05 Mar ? 03:36:19 10° NNE 03:41:38 49° E 03:46:55 10° S visible
06 Mar ? 03:21:33 10° NNE 03:26:38 37° E 03:31:41 10° SSE visible
06 Mar ? 05:02:05 10° N 05:07:09 39° WNW 05:12:10 10° SW visible
07 Mar ? 03:06:52 10° NE 03:11:36 29° E 03:16:18 10° SSE visible
07 Mar ? 04:47:02 10° N 04:52:19 50° WNW 04:57:35 10° SW visible
